H1 CPF 2 NER 2025 9 17 9 260 01 glonass145 H2 2213001 9145 54031 2025 9 17 0 0 0 2025 9 20 23 45 0 900 1 1 0 0 0 1 H9 10 0 60935 0.00000 0 -12612961.408 16314967.534 14967958.270 10 0 60935 900.00000 0 -13957600.486 17345089.963 12390007.407 10 0 60935 1800.00000 0 -14961671.877 18265678.776 9570559.749 10 0 60935 2700.00000 0 -15628074.612 19018054.878 6564519.944 10 0 60935 3600.00000 0 -15972326.685 19547330.772 3430471.534 10 0 60935 4500.00000 0 -16021678.417 19804854.238 229522.705 10 0 60935 5400.00000 0 -15813738.173 19750406.210 -2975900.455 10 0 60935 6300.00000 0 -15394669.935 19354057.966 -6123288.025 10 0 60935 7200.00000 0 -14817040.788 18597607.427 -9151281.671 10 0 60935 8100.00000 0 -14137411.504 17475532.527 -12000885.506 10 0 60935 9000.00000 0 -13413774.318 15995420.580 -14616627.185 10 0 60935 9900.00000 0 -12702948.286 14177855.248 -16947645.339 10 0 60935 10800.00000 0 -12058043.988 12055766.036 -18948681.446 10 0 60935 11700.00000 0 -11526105.729 9673268.183 -20580956.674 10 0 60935 12600.00000 0 -11146031.287 7084042.343 -21812917.026 10 0 60935 13500.00000 0 -10946856.681 4349322.626 -22620833.173 10 0 60935 14400.00000 0 -10946477.490 1535577.592 -22989244.646 10 0 60935 15300.00000 0 -11150859.275 -1288018.848 -22911241.265 10 0 60935 16200.00000 0 -11553768.831 -4052221.555 -22388577.967 10 0 60935 17100.00000 0 -12137035.923 -6690344.537 -21431622.405 10 0 60935 18000.00000 0 -12871333.053 -9140779.497 -20059137.670 10 0 60935 18900.00000 0 -13717439.241 -11349299.707 -18297905.466 10 0 60935 19800.00000 0 -14627933.951 -13271055.602 -16182197.783 10 0 60935 20700.00000 0 -15549249.577 -14872181.454 -13753107.691 10 0 60935 21600.00000 0 -16423996.345 -16130948.752 -11057752.281 10 0 60935 22500.00000 0 -17193462.372 -17038420.549 -8148362.914 10 0 60935 23400.00000 0 -17800184.520 -17598581.631 -5081279.937 10 0 60935 24300.00000 0 -18190482.855 -17827940.822 -1915870.655 10 0 60935 25200.00000 0 -18316853.057 -17754623.410 1286609.310 10 0 60935 26100.00000 0 -18140116.924 -17416992.548 4464190.038 10 0 60935 27000.00000 0 -17631241.087 -16861857.821 7555374.905 10 0 60935 27900.00000 0 -16772747.591 -16142346.101 10500319.648 10 0 60935 28800.00000 0 -15559656.763 -15315523.678 13241980.927 10 0 60935 29700.00000 0 -13999921.909 -14439868.952 15727212.952 10 0 60935 30600.00000 0 -12114336.209 -13572701.088 17907791.688 10 0 60935 31500.00000 0 -9935913.882 -12767672.007 19741347.344 10 0 60935 32400.00000 0 -7508769.205 -12072426.548 21192187.515 10 0 60935 33300.00000 0 -4886537.724 -11526528.842 22231995.174 10 0 60935 34200.00000 0 -2130402.935 -11159742.189 22840387.853 10 0 60935 35100.00000 0 693191.848 -10990735.220 23005326.710 10 0 60935 36000.00000 0 3515053.405 -11026269.715 22723366.753 10 0 60935 36900.00000 0 6265867.643 -11260905.533 21999742.230 10 0 60935 37800.00000 0 8878839.654 -11677236.634 20848284.152 10 0 60935 38700.00000 0 11292235.645 -12246649.915 19291169.964 10 0 60935 39600.00000 0 13451720.974 -12930576.465 17358508.655 10 0 60935 40500.00000 0 15312396.503 -13682183.739 15087767.870 10 0 60935 41400.00000 0 16840447.580 -14448438.070 12523052.944 10 0 60935 42300.00000 0 18014335.892 -15172450.623 9714251.085 10 0 60935 43200.00000 0 18825483.510 -15796007.204 6716057.082 10 0 60935 44100.00000 0 19278420.000 -16262173.902 3586899.753 10 0 60935 45000.00000 0 19390386.377 -16517866.707 387790.916 10 0 60935 45900.00000 0 19190413.105 -16516274.447 -2818879.349 10 0 60935 46800.00000 0 18717912.126 -16219030.434 -5970576.058 10 0 60935 47700.00000 0 18020843.920 -15598038.958 -9005855.301 10 0 60935 48600.00000 0 17153538.976 -14636877.730 -11865576.946 10 0 60935 49500.00000 0 16174267.826 -13331715.749 -14494068.800 10 0 60935 50400.00000 0 15142664.372 -11691707.162 -16840218.234 10 0 60935 51300.00000 0 14117113.094 -9738844.286 -18858469.252 10 0 60935 52200.00000 0 13152211.700 -7507276.160 -20509705.433 10 0 60935 53100.00000 0 12296416.897 -5042121.744 -21762001.874 10 0 60935 54000.00000 0 11589972.459 -2397828.093 -22591232.430 10 0 60935 54900.00000 0 11063206.119 363857.327 -22981521.728 10 0 60935 55800.00000 0 10735265.669 3176215.210 -22925534.679 10 0 60935 56700.00000 0 10613345.697 5970086.914 -22424599.539 10 0 60935 57600.00000 0 10692435.542 8676506.025 -21488663.676 10 0 60935 58500.00000 0 10955597.138 11229320.537 -20136084.303 10 0 60935 59400.00000 0 11374759.298 13567698.124 -18393259.346 10 0 60935 60300.00000 0 11911993.687 15638412.241 -16294106.346 10 0 60935 61200.00000 0 12521217.869 17397816.083 -13879399.908 10 0 60935 62100.00000 0 13150253.359 18813424.546 -11195980.615 10 0 60935 63000.00000 0 13743152.108 19865040.519 -8295850.449 10 0 60935 63900.00000 0 14242693.902 20545380.603 -5235171.799 10 0 60935 64800.00000 0 14592950.208 20860175.944 -2073188.769 10 0 60935 65700.00000 0 14741807.345 20827745.332 1128909.143 10 0 60935 66600.00000 0 14643343.486 20478059.398 4309159.800 10 0 60935 67500.00000 0 14259960.032 19851335.573 7406015.853 10 0 60935 68400.00000 0 13564177.960 18996222.751 10359524.730 10 0 60935 69300.00000 0 12540023.402 17967651.425 13112479.205 10 0 60935 70200.00000 0 11183943.603 16824438.828 15611517.075 10 0 60935 71100.00000 0 9505213.565 15626748.747 17808149.406 10 0 60935 72000.00000 0 7525814.639 14433511.686 19659697.969 10 0 60935 72900.00000 0 5279787.915 13299912.824 21130124.153 10 0 60935 73800.00000 0 2812086.930 12275052.547 22190733.443 10 0 60935 74700.00000 0 176974.896 11399877.384 22820741.704 10 0 60935 75600.00000 0 -2563969.439 10705468.233 23007691.831 10 0 60935 76500.00000 0 -5344156.751 10211758.153 22747711.936 10 0 60935 77400.00000 0 -8094509.084 9926734.388 22045608.920 10 0 60935 78300.00000 0 -10746095.449 9846159.253 20914794.283 10 0 60935 79200.00000 0 -13232772.425 9953822.891 19377042.021 10 0 60935 80100.00000 0 -15493720.153 10222318.537 17462081.754 10 0 60935 81000.00000 0 -17475767.844 10614308.745 15207033.474 10 0 60935 81900.00000 0 -19135411.107 11084229.900 12655693.663 10 0 60935 82800.00000 0 -20440435.828 11580363.332 9857685.852 10 0 60935 83700.00000 0 -21371079.645 12047185.133 6867491.802 10 0 60935 84600.00000 0 -21920681.451 12427894.372 3743382.414 10 0 60935 85500.00000 0 -22095791.172 12667011.196 546269.998 10 0 60936 0.00000 0 -21915735.237 12712932.888 -2661494.138 10 0 60936 900.00000 0 -21411656.501 12520337.532 -5817353.411 10 0 60936 1800.00000 0 -20625070.585 12052331.293 -8859780.767 10 0 60936 2700.00000 0 -19606000.863 11282246.629 -11729494.346 10 0 60936 3600.00000 0 -18410772.906 10195013.686 -14370624.386 10 0 60936 4500.00000 0 -17099563.445 8788045.922 -16731808.985 10 0 60936 5400.00000 0 -15733809.109 7071602.026 -18767196.347 10 0 60936 6300.00000 0 -14373585.617 5068608.763 -20437333.771 10 0 60936 7200.00000 0 -13075068.732 2813952.454 -21709926.389 10 0 60936 8100.00000 0 -11888184.046 353269.280 -22560451.800 10 0 60936 9000.00000 0 -10854543.856 -2258714.485 -22972619.906 10 0 60936 9900.00000 0 -10005756.703 -4960222.546 -22938670.537 10 0 60936 10800.00000 0 -9362178.780 -7684763.782 -22459504.728 10 0 60936 11700.00000 0 -8932157.524 -10363665.585 -21544648.694 10 0 60936 12600.00000 0 -8711796.909 -12928700.590 -20212052.582 10 0 60936 13500.00000 0 -8685252.046 -15314698.699 -18487729.049 10 0 60936 14400.00000 0 -8825538.798 -17462037.348 -16405239.440 10 0 60936 15300.00000 0 -9095822.816 -19318908.212 -14005037.949 10 0 60936 16200.00000 0 -9451132.744 -20843268.059 -11333686.547 10 0 60936 17100.00000 0 -9840424.978 -22004394.532 -8442955.634 10 0 60936 18000.00000 0 -10208912.998 -22783983.933 -5388827.394 10 0 60936 18900.00000 0 -10500563.476 -23176746.914 -2230420.462 10 0 60936 19800.00000 0 -10660654.621 -23190478.558 971144.056 10 0 60936 20700.00000 0 -10638289.598 -22845600.890 4153914.090 10 0 60936 21600.00000 0 -10388759.784 -22174197.497 7256293.860 10 0 60936 22500.00000 0 -9875658.700 -21218580.742 10218224.793 10 0 60936 23400.00000 0 -9072657.696 -20029451.286 12982338.079 10 0 60936 24300.00000 0 -7964868.281 -18663726.368 15495057.371 10 0 60936 25200.00000 0 -6549732.909 -17182126.914 17707631.005 10 0 60936 26100.00000 0 -4837405.347 -15646623.573 19577074.342 10 0 60936 27000.00000 0 -2850602.677 -14117847.607 21067004.383 10 0 60936 27900.00000 0 -623932.700 -12652574.175 22148350.689 10 0 60936 28800.00000 0 1797277.867 -11301382.747 22799928.732 10 0 60936 29700.00000 0 4358608.282 -10106592.270 23008864.106 10 0 60936 30600.00000 0 6998556.771 -9100557.563 22770858.665 10 0 60936 31500.00000 0 9650860.129 -8304398.751 22090292.278 10 0 60936 32400.00000 0 12247025.307 -7727217.667 20980156.920 10 0 60936 33300.00000 0 14718968.920 -7365835.034 19461822.790 10 0 60936 34200.00000 0 17001655.368 -7205060.450 17564639.443 10 0 60936 35100.00000 0 19035623.600 -7218484.734 15325378.149 10 0 60936 36000.00000 0 20769296.533 -7369761.869 12787525.074 10 0 60936 36900.00000 0 22160975.577 -7614326.743 10000438.184 10 0 60936 37800.00000 0 23180435.616 -7901475.830 7018383.905 10 0 60936 38700.00000 0 23810052.396 -8176722.012 3899472.508 10 0 60936 39600.00000 0 24045414.044 -8384322.461 704513.739 10 0 60936 40500.00000 0 23895390.512 -8469870.716 -2504183.728 10 0 60936 41400.00000 0 23381658.083 -8382840.974 -5664043.984 10 0 60936 42300.00000 0 22537699.642 -8078974.602 -8713460.829 10 0 60936 43200.00000 0 21407324.069 -7522405.653 -11593013.977 10 0 60936 44100.00000 0 20042768.783 -6687433.641 -14246639.181 10 0 60936 45000.00000 0 18502467.316 -5559867.186 -16622728.087 10 0 60936 45900.00000 0 16848577.793 -4137880.963 -18675135.613 10 0 60936 46800.00000 0 15144377.931 -2432349.384 -20364074.964 10 0 60936 47700.00000 0 13451637.291 -466643.051 -21656883.158 10 0 60936 48600.00000 0 11828077.658 1724103.164 -22528643.042 10 0 60936 49500.00000 0 10325027.923 4094219.274 -22962650.925 10 0 60936 50400.00000 0 8985370.898 6589174.666 -22950722.300 10 0 60936 51300.00000 0 7841866.510 9147627.754 -22493331.322 10 0 60936 52200.00000 0 6915919.517 11703765.346 -21599582.963 10 0 60936 53100.00000 0 6216840.977 14189834.673 -20287019.787 10 0 60936 54000.00000 0 5741631.886 16538763.475 -18581268.240 10 0 60936 54900.00000 0 5475295.642 18686760.331 -16515532.088 10 0 60936 55800.00000 0 5391664.162 20575788.477 -14129943.308 10 0 60936 56700.00000 0 5454701.267 22155811.856 -11470783.037 10 0 60936 57600.00000 0 5620227.448 23386721.626 -8589587.490 10 0 60936 58500.00000 0 5837992.817 24239864.547 -5542155.690 10 0 60936 59400.00000 0 6054010.887 24699111.070 -2387477.579 10 0 60936 60300.00000 0 6213055.090 24761419.828 813397.551 10 0 60936 61200.00000 0 6261213.348 24436875.842 3998531.203 10 0 60936 62100.00000 0 6148393.600 23748201.399 7106282.648 10 0 60936 63000.00000 0 5830675.176 22729760.136 10076490.673 10 0 60936 63900.00000 0 5272407.223 21426095.664 12851628.043 10 0 60936 64800.00000 0 4447965.702 19890065.218 15377907.144 10 0 60936 65700.00000 0 3343094.418 18180645.432 17606316.169 10 0 60936 66600.00000 0 1955772.597 16360500.896 19493566.307 10 0 60936 67500.00000 0 296570.892 14493415.974 21002932.066 10 0 60936 68400.00000 0 -1611521.305 12641696.075 22104968.612 10 0 60936 69300.00000 0 -3733792.590 10863646.087 22778092.144 10 0 60936 70200.00000 0 -6025003.951 9211230.622 23009011.660 10 0 60936 71100.00000 0 -8431033.851 7728013.536 22793002.982 10 0 60936 72000.00000 0 -10890907.930 6447462.869 22134018.670 10 0 60936 72900.00000 0 -13339130.954 5391692.478 21044630.356 10 0 60936 73800.00000 0 -15708225.494 4570693.618 19545803.072 10 0 60936 74700.00000 0 -17931372.429 3982089.445 17666504.388 10 0 60936 75600.00000 0 -19945043.437 3611423.440 15443154.430 10 0 60936 76500.00000 0 -21691515.148 3432970.194 12918926.194 10 0 60936 77400.00000 0 -23121158.905 3411034.608 10142908.893 10 0 60936 78300.00000 0 -24194408.963 3501684.487 7169150.217 10 0 60936 79200.00000 0 -24883325.202 3654842.573 4055596.309 10 0 60936 80100.00000 0 -25172683.361 3816648.263 862950.856 10 0 60936 81000.00000 0 -25060546.011 3931987.253 -2346523.213 10 0 60936 81900.00000 0 -24558289.700 3947079.850 -5510234.490 10 0 60936 82800.00000 0 -23690087.222 3812016.008 -8566500.385 10 0 60936 83700.00000 0 -22491867.528 3483127.443 -11455765.003 10 0 60936 84600.00000 0 -21009798.303 2925094.349 -14121772.151 10 0 60936 85500.00000 0 -19298356.695 2112695.962 -16512669.244 10 0 60937 0.00000 0 -17418071.296 1032129.971 -18582019.581 10 0 60937 900.00000 0 -15433030.898 -318156.182 -20289704.048 10 0 60937 1800.00000 0 -13408268.496 -1927155.753 -21602692.290 10 0 60937 2700.00000 0 -11407127.700 -3771529.608 -22495672.837 10 0 60937 3600.00000 0 -9488724.456 -5816358.257 -22951528.371 10 0 60937 4500.00000 0 -7705608.749 -8016387.485 -22961649.546 10 0 60937 5400.00000 0 -6101722.903 -10317714.978 -22526082.726 10 0 60937 6300.00000 0 -4710739.892 -12659847.301 -21653510.369 10 0 60937 7200.00000 0 -3554848.753 -14978041.498 -20361065.875 10 0 60937 8100.00000 0 -2644035.254 -17205834.218 -18673987.635 10 0 60937 9000.00000 0 -1975885.208 -19277653.829 -16625119.817 10 0 60937 9900.00000 0 -1535916.211 -21131407.877 -14254269.996 10 0 60937 10800.00000 0 -1298421.717 -22710939.459 -11607436.219 10 0 60937 11700.00000 0 -1227790.359 -23968251.698 -8735918.221 10 0 60937 12600.00000 0 -1280243.935 -24865409.030 -5695329.573 10 0 60937 13500.00000 0 -1405920.371 -25376037.402 -2544529.262 10 0 60937 14400.00000 0 -1551213.810 -25486361.889 655507.445 10 0 60937 15300.00000 0 -1661273.508 -25195739.239 3842857.784 10 0 60937 16200.00000 0 -1682556.663 -24516663.553 6955838.204 10 0 60937 17100.00000 0 -1565328.096 -23474244.907 9934186.943 10 0 60937 18000.00000 0 -1266001.820 -22105182.364 12720220.374 10 0 60937 18900.00000 0 -749226.012 -20456273.569 15259941.603 10 0 60937 19800.00000 0 10376.665 -18582522.163 17504080.550 10 0 60937 20700.00000 0 1026887.344 -16544920.839 19409045.971 10 0 60937 21600.00000 0 2302244.651 -14408001.207 20937771.417 10 0 60937 22500.00000 0 3825911.204 -12237251.412 22060438.972 10 0 60937 23400.00000 0 5575069.119 -10096507.963 22755066.626 10 0 60937 24300.00000 0 7515339.005 -8045429.639 23007947.560 10 0 60937 25200.00000 0 9601995.102 -6137158.094 22813932.075 10 0 60937 26100.00000 0 11781628.525 -4416262.494 22176545.659 10 0 60937 27000.00000 0 13994191.548 -2917054.008 21107939.565 10 0 60937 27900.00000 0 16175339.573 -1662340.890 19628673.354 10 0 60937 28800.00000 0 18258974.276 -662676.773 17767332.030 10 0 60937 29700.00000 0 20179882.312 83865.743 15559983.693 10 0 60937 30600.00000 0 21876359.159 591386.241 13049486.966 10 0 60937 31500.00000 0 23292707.467 885325.103 10284660.751 10 0 60937 32400.00000 0 24381503.996 1001144.763 7319332.082 10 0 60937 33300.00000 0 25105538.446 982579.878 4211280.679 10 0 60937 34200.00000 0 25439341.102 879531.490 1021101.548 10 0 60937 35100.00000 0 25370233.663 745695.914 -2188991.031 10 0 60937 36000.00000 0 24898857.962 636030.774 -5356393.216 10 0 60937 36900.00000 0 24039159.858 604167.809 -8419349.166 10 0 60937 37800.00000 0 22817829.087 699884.345 -11318170.452 10 0 60937 38700.00000 0 21273219.373 966742.723 -13996411.880 10 0 60937 39600.00000 0 19453795.437 1439999.382 -16401979.352 10 0 60937 40500.00000 0 17416173.668 2144873.402 -18488147.364 10 0 60937 41400.00000 0 15222840.292 3095248.426 -20214465.972 10 0 60937 42300.00000 0 12939644.108 4292863.043 -21547539.818 10 0 60937 43200.00000 0 10633169.832 5727023.526 -22461664.845 10 0 60937 44100.00000 0 8368102.265 7374850.575 -22939311.567 10 0 60937 45000.00000 0 6204691.222 9202049.049 -22971446.968 10 0 60937 45900.00000 0 4196422.026 11164167.837 -22557690.450 10 0 60937 46800.00000 0 2387987.134 13208296.681 -21706302.413 10 0 60937 47700.00000 0 813641.284 15275128.837 -20434007.120 10 0 60937 48600.00000 0 -503993.751 17301303.590 -18765654.499 10 0 60937 49500.00000 0 -1554627.712 19221931.393 -16733728.223 10 0 60937 50400.00000 0 -2340477.203 20973197.093 -14377710.120 10 0 60937 51300.00000 0 -2875913.023 22494933.744 -11743313.330 10 0 60937 52200.00000 0 -3186596.365 23733060.896 -8881598.852 10 0 60937 53100.00000 0 -3308141.725 24641786.864 -5847992.173 10 0 60937 54000.00000 0 -3284363.748 25185484.258 -2701218.353 10 0 60937 54900.00000 0 -3165182.295 25340161.480 497824.595 10 0 60937 55800.00000 0 -3004273.960 25094469.430 3687233.045 10 0 60937 56700.00000 0 -2856568.726 24450201.768 6805284.099 10 0 60937 57600.00000 0 -2775696.773 23422267.795 9791618.905 10 0 60937 58500.00000 0 -2811492.549 22038138.690 12588400.819 10 0 60937 59400.00000 0 -3007660.918 20336789.425 15141426.857 10 0 60937 60300.00000 0 -3399703.597 18367179.400 17401171.641 10 0 60937 61200.00000 0 -4013193.514 16186333.816 19323744.194 10 0 60937 62100.00000 0 -4862470.467 13857104.266 20871739.517 10 0 60937 63000.00000 0 -5949814.254 11445700.292 22014968.660 10 0 60937 63900.00000 0 -7265131.843 9019093.274 22731053.074 10 0 60937 64800.00000 0 -8786173.955 6642399.492 23005871.362 10 0 60937 65700.00000 0 -10479274.560 4376350.305 22833849.061 10 0 60937 66600.00000 0 -12300584.921 2274954.233 22218084.802 10 0 60937 67500.00000 0 -14197753.060 383448.080 21170309.108 10 0 60937 68400.00000 0 -16111980.553 -1263377.383 19710675.111 10 0 60937 69300.00000 0 -17980372.181 -2642406.881 17867383.686 10 0 60937 70200.00000 0 -19738481.066 -3742933.362 15676148.773 10 0 60937 71100.00000 0 -21322942.916 -4566862.842 13179511.961 10 0 60937 72000.00000 0 -22674088.434 -5128382.425 10426018.754 10 0 60937 72900.00000 0 -23738423.147 -5453105.513 7469272.099 10 0 60937 73800.00000 0 -24470868.967 -5576730.656 4366881.662 10 0 60937 74700.00000 0 -24836671.405 -5543271.597 1179330.026 10 0 60937 75600.00000 0 -24812890.459 -5402934.782 -2031220.912 10 0 60937 76500.00000 0 -24389410.909 -5209736.029 -5202158.539 10 0 60937 77400.00000 0 -23569428.406 -5018959.455 -8271657.264 10 0 60937 78300.00000 0 -22369390.462 -4884568.626 -11179899.430 10 0 60937 79200.00000 0 -20818394.931 -4856681.790 -13870253.859 10 0 60937 80100.00000 0 -18957072.050 -4979220.076 -16290387.635 10 0 60937 81000.00000 0 -16835998.090 -5287829.640 -18393288.563 10 0 60937 81900.00000 0 -14513708.567 -5808166.594 -20138178.032 10 0 60937 82800.00000 0 -12054395.611 -6554617.501 -21491296.724 10 0 60937 83700.00000 0 -9525386.900 -7529509.289 -22426548.651 10 0 60937 84600.00000 0 -6994512.155 -8722841.333 -22925992.215 10 0 60937 85500.00000 0 -4527467.121 -10112550.192 -22980170.224 10 0 60938 0.00000 0 -2185284.490 -11665294.923 -22588274.164 10 0 60938 900.00000 0 -22014.577 -13337730.128 -21758140.859 10 0 60938 1800.00000 0 1917286.473 -15078210.814 -20506083.665 10 0 60938 2700.00000 0 3598183.706 -16828860.248 -18856561.972 10 0 60938 3600.00000 0 4998037.358 -18527912.480 -16841696.689 10 0 60938 4500.00000 0 6106678.877 -20112232.901 -14500641.463 10 0 60938 5400.00000 0 6926563.230 -21519912.160 -11878821.996 10 0 60938 6300.00000 0 7472393.524 -22692826.062 -9027057.957 10 0 60938 7200.00000 0 7770235.597 -23579055.526 -6000584.118 10 0 60938 8100.00000 0 7856161.204 -24135066.527 -2857988.997 10 0 60938 9000.00000 0 7774477.690 -24327559.796 339909.222 10 0 60938 9900.00000 0 7575618.963 -24134913.609 3531228.547 10 0 60938 10800.00000 0 7313786.531 -23548159.677 6654209.136 10 0 60938 11700.00000 0 7044439.567 -22571451.269 9648397.310 10 0 60938 12600.00000 0 6821739.241 -21222003.577 12455805.513 10 0 60938 13500.00000 0 6696054.460 -19529507.900 15022026.594 10 0 60938 14400.00000 0 6711633.712 -17535042.896 17297281.583 10 0 60938 15300.00000 0 6904540.965 -15289526.776 19237381.227 10 0 60938 16200.00000 0 7300942.834 -12851773.242 20804583.158 10 0 60938 17100.00000 0 7915819.840 -10286230.297 21968328.295 10 0 60938 18000.00000 0 8752157.268 -7660494.324 22705842.149 10 0 60938 18900.00000 0 9800651.384 -5042701.226 23002589.058 10 0 60938 19800.00000 0 11039945.492 -2498901.829 22852569.834 10 0 60938 20700.00000 0 12437388.332 -90529.787 22258456.044 10 0 60938 21600.00000 0 13950285.376 2127933.214 21231557.041 10 0 60938 22500.00000 0 15527592.824 4110997.888 19791618.886 10 0 60938 23400.00000 0 17111985.019 5823828.122 17966457.480 10 0 60938 24300.00000 0 18642209.833 7243452.380 15791431.550 10 0 60938 25200.00000 0 20055633.718 8359474.575 13308764.383 10 0 60938 26100.00000 0 21290869.314 9174254.190 10566726.574 10 0 60938 27000.00000 0 22290374.303 9702547.936 7618695.218 10 0 60938 27900.00000 0 23002910.760 9970628.239 4522107.883 10 0 60938 28800.00000 0 23385759.606 10014916.402 1337332.451 10 0 60938 29700.00000 0 23406594.986 9880189.369 -1873524.060 10 0 60938 30600.00000 0 23044937.706 9617437.554 -5047842.891 10 0 60938 31500.00000 0 22293125.005 9281466.453 -8123731.388 10 0 60938 32400.00000 0 21156754.782 8928345.802 -11041245.309 10 0 60938 33300.00000 0 19654585.167 8612816.557 -13743570.031 10 0 60938 34200.00000 0 17817893.811 8385767.513 -16178136.190 10 0 60938 35100.00000 0 15689324.539 8291889.998 -18297647.079 10 0 60938 36000.00000 0 13321270.724 8367610.899 -20060997.417 10 0 60938 36900.00000 0 10773864.309 8639391.887 -21434065.742 10 0 60938 37800.00000 0 8112655.639 9122466.516 -22390365.790 10 0 60938 38700.00000 0 5406081.734 9820067.868 -22911545.336 10 0 60938 39600.00000 0 2722828.899 10723178.355 -22987724.289 10 0 60938 40500.00000 0 129199.171 11810811.069 -22617667.127 10 0 60938 41400.00000 0 -2313410.744 13050809.813 -21808787.942 10 0 60938 42300.00000 0 -4550814.760 14401133.288 -20576989.469 10 0 60938 43200.00000 0 -6538033.119 15811568.997 -18946340.457 10 0 60938 44100.00000 0 -8240897.990 17225804.765 -16948598.486 10 0 60938 45000.00000 0 -9637204.742 18583771.253 -14622588.018 10 0 60938 45900.00000 0 -10717363.621 19824157.815 -12013445.869 10 0 60938 46800.00000 0 -11484527.132 20886997.132 -9171748.539 10 0 60938 47700.00000 0 -11954189.985 21716211.268 -6152537.892 10 0 60938 48600.00000 0 -12153280.110 22262013.500 -3014263.397 10 0 60938 49500.00000 0 -12118780.064 22483066.195 182339.350 10 0 60938 50400.00000 0 -11895937.439 22348305.014 3375412.959 10 0 60938 51300.00000 0 -11536139.673 21838353.414 6503163.753 10 0 60938 52200.00000 0 -11094542.509 20946468.212 9505046.442 10 0 60938 53100.00000 0 -10627551.452 19678976.188 12322925.800 10 0 60938 54000.00000 0 -10190261.629 18055182.585 14902193.720 10 0 60938 54900.00000 0 -9833963.314 16106754.013 17192820.758 10 0 60938 55800.00000 0 -9603817.658 13876599.872 19150322.356 10 0 60938 56700.00000 0 -9536800.353 11417297.029 20736621.529 10 0 60938 57600.00000 0 -9659999.998 8789121.279 21920791.537 10 0 60938 58500.00000 0 -9989343.485 6057765.499 22679664.089 10 0 60938 59400.00000 0 -10528803.172 3291837.459 22998290.990 10 0 60938 60300.00000 0 -11270120.820 560239.618 22870249.597 10 0 60938 61200.00000 0 -12193061.840 -2070461.442 22297785.170 10 0 60938 62100.00000 0 -13266191.288 -4538567.452 21291786.081 10 0 60938 63000.00000 0 -14448141.106 -6789577.847 19871590.913 10 0 60938 63900.00000 0 -15689317.203 -8778219.056 18064629.582 10 0 60938 64800.00000 0 -16933976.034 -10470088.782 15905904.001 10 0 60938 65700.00000 0 -18122584.151 -11842846.064 13437316.998 10 0 60938 66600.00000 0 -19194361.553 -12886896.776 10706861.615 10 0 60938 67500.00000 0 -20089901.135 -13605545.425 7767686.044 10 0 60938 68400.00000 0 -20753752.633 -14014606.838 4677052.402 10 0 60938 69300.00000 0 -21136860.386 -14141494.399 1495210.285 10 0 60938 70200.00000 0 -21198750.079 -14023824.213 -1715791.871 10 0 60938 71100.00000 0 -20909370.168 -13707595.491 -4893332.916 10 0 60938 72000.00000 0 -20250508.428 -13245025.939 -7975456.862 10 0 60938 72900.00000 0 -19216722.432 -12692135.803 -10902096.510 10 0 60938 73800.00000 0 -17815743.806 -12106185.048 -13616257.248 10 0 60938 74700.00000 0 -16068338.879 -11543074.199 -16065136.452 10 0 60938 75600.00000 0 -14007631.813 -11054820.575 -18201155.734 10 0 60938 76500.00000 0 -11677919.203 -10687217.871 -19982885.511 10 0 60938 77400.00000 0 -9133026.766 -10477778.610 -21375844.008 10 0 60938 78300.00000 0 -6434277.787 -10454046.328 -22353155.901 10 0 60938 79200.00000 0 -3648158.916 -10632348.069 -22896058.919 10 0 60938 80100.00000 0 -843781.111 -11017038.711 -22994250.040 10 0 60938 81000.00000 0 1909758.641 -11600267.561 -22646066.189 10 0 60938 81900.00000 0 4546005.726 -12362275.618 -21858497.560 10 0 60938 82800.00000 0 7003658.370 -13272209.649 -20647034.777 10 0 60938 83700.00000 0 9228857.596 -14289417.783 -19035354.100 10 0 60938 84600.00000 0 11177163.694 -15365171.516 -17054847.653 10 0 60938 85500.00000 0 12815139.397 -16444741.508 -14744008.329 99